User: anonymous   Login
Location: Rio de Janeiro
(22.9068°S, 43.1729°W)
Time: 12:35:52
(UTC-03:00)
Language:

BlueWalker 3 - Orbit

View from above orbital plane
View from above orbital plane
View from above satellite
View from above satellite

Ground track
Ground track

The orbit data is extracted from the following two-line orbital elements,

1 53807U 22111AL  24177.18568126  .00004387  00000-0  17987-3 0  9995
2 53807  53.2349 156.7605 0009736 110.7155 249.4890 15.26293663 99452
Epoch (UTC): 25 June 2024 04:27:22
Eccentricity: 0.0009736
inclination: 53.2349°
perigee height: 480 km
apogee height: 493 km
right ascension of ascending node: 156.7605°
argument of perigee: 110.7155°
revolutions per day: 15.26293663
mean anomaly at epoch: 249.4890°
orbit number at epoch: 9945

The dashed part of the orbit path shows where the satellite is in the earth's shadow,  

DLR